Location: Les Gen�tes
(46.3104°N, 1.5969°E)
Time: 01:29:59
(UTC+00:00)

STARLINK-1097 - Pass Details

Date: 01 June 2020
Orbit: 549 x 551 km, 53.0° (Epoch: 05 July)

Event Time Altitude Azimuth Distance (km) Brightness Sun altitude
Rises 21:27:35 0° 300° (WNW) 2,725 8.4 -14.1°
Reaches altitude 10° 21:29:49 10° 298° (WNW) 1,829 7.3 -14.3°
Maximum altitude 21:33:58 76° 213° (SSW) 572 3.6 -14.7°
Enters shadow 21:36:12 26° 132° (SE) 1,095 4.6 -14.9°
